Location: Moy Burn
(57.3833°N, 4.0667°W)
Time: 12:33:43
(UTC+00:00)

Cosmos 1666 Rocket - Pass Details

Date: 08 August 2020
Orbit: 605 x 632 km, 82.5° (Epoch: 21 September)

Event Time Altitude Azimuth Distance (km) Brightness Sun altitude
Rises 21:59:47 0° 207° (SSW) 2,854 6.7 -11.1°
Reaches altitude 10° 22:02:03 10° 213° (SSW) 1,955 5.9 -11.3°
Maximum altitude 22:06:15 50° 289° (WNW) 783 4.4 -11.6°
Drops below altitude 10° 22:10:31 10° 5° (N) 1,978 7.0 -11.9°
Sets 22:12:49 0° 11° (N) 2,891 7.8 -12.1°
